User: anonymous   Login
Location: Unspecified
(0.0000°N, 0.0000°E)
Time: 04:31:29
(UTC+00:00)
Language:

LANDSAT 8 - Orbit

View from above orbital plane
View from above orbital plane
View from above satellite
View from above satellite

Ground track
Ground track

The orbit data is extracted from the following two-line orbital elements,

1 39084U 13008A   15244.80627650  .00000137  00000-0  40594-4 0  9993
2 39084  98.2224 313.6871 0001376  94.1015 266.0341 14.57109182135761
Epoch (UTC): 01 September 2015 19:21:02
Eccentricity: 0.0001376
inclination: 98.2224°
perigee height: 701 km
apogee height: 703 km
right ascension of ascending node: 313.6871°
argument of perigee: 94.1015°
revolutions per day: 14.57109182
mean anomaly at epoch: 266.0341°
orbit number at epoch: 13576

The dashed part of the orbit path shows where the satellite is in the earth's shadow,  

DLR